Flag for Hungary Weather past 2 weeks in Sopron, Hungary

Now
46 °F

Cool.


Feels Like: 41 °F
Forecast: 37 / 48 °F
Wind: 10 mph from West

Location: Eisenstadt

Current Time: Apr 1, 2015 at 7:06:24 PM

Latest Report: Apr 1, 2015 at 6:00 PM


Visibility: N/A

Pressure: 29.92 "Hg

Humidity: 49%

Dew point: 28 °F

Location of SopronLocation

Historic Weather in Sopron — Graph

°F

Sopron temperature yesterday

Maximum temperature yesterday: 58 °F (at 5:00 PM)
Minimum temperature yesterday: 40 °F (at 9:00 AM)
Average temperature yesterday: 48 °F

Past Weeks' High & Low Weather Summary

 TemperatureHumidityPressure
High64 °F (Mar 26, 4:00 PM)94% (Mar 26, 10:00 PM)30.41 "Hg (Mar 26, 10:00 PM)
Low31 °F (Mar 19, 6:00 AM)36% (Mar 18, 4:00 PM)29.44 "Hg (Mar 31, 3:00 PM)
Average47 °F65%29.96 "Hg
* Reported Mar 17 4:00 PM — Apr 1 5:00 PM, Sopron, Weather by CustomWeather, © 2015

Note: Actual official high and low records may vary slightly from our data, if they occured in-between our weather recording intervals... More about our weather records

Advertising

Sopron weather history for previous 24 hours

 ConditionsComfort  
Time TempWeatherWind HumidityBarometerVisibility
5:00 PM
Wed, Apr 1
46 °FScattered clouds.8 mph48%29.90 "Hg9 mi
4:00 PM46 °FCool.7 mph47%29.89 "HgN/A
3:00 PM46 °FCool.9 mph44%29.90 "HgN/A
2:00 PM47 °FPartly sunny.9 mph43%29.90 "Hg9 mi
1:00 PM44 °FQuite cool.7 mph59%29.90 "HgN/A
12:00 PM40 °FChilly.7 mph77%29.93 "HgN/A
11:00 AM43 °FQuite cool.7 mph56%29.90 "HgN/A
10:00 AM42 °FQuite cool.7 mph63%29.89 "HgN/A
9:00 AM42 °FQuite cool.12 mph60%29.84 "HgN/A
8:00 AM42 °FQuite cool.8 mph60%29.82 "HgN/A
7:00 AM42 °FPartly sunny.6 mph67%29.80 "Hg9 mi
6:00 AM45 °FOvercast.7 mph54%29.78 "Hg9 mi
4:00 AM47 °FCool.6 mph50%29.73 "HgN/A
3:00 AM48 °FCool.7 mph46%29.73 "HgN/A
2:00 AM49 °FClear.7 mph45%29.74 "Hg9 mi
1:00 AM49 °FCool.8 mph46%29.72 "HgN/A
12:00 AM49 °FCool.12 mph50%29.70 "HgN/A
10:00 PM
Tue, Mar 31
52 °FCool.8 mph50%29.66 "HgN/A
9:00 PM51 °FCool.7 mph69%29.63 "HgN/A
8:00 PM52 °FOvercast.9 mph63%29.57 "Hg9 mi
7:00 PM53 °FCool.8 mph68%29.54 "HgN/A
Weather by CustomWeather, © 2015

See weather overviewHow to use our weather pages